This is the latest recevied weather packets stored in our database for station/object N3WXO-1. If no packets are shown the sender has not sent any weather packets the latest 1 day(s).
| Time | Temp. | Humidity | Pressure | Rain* | Wind** | Luminosity | Snow |
|---|---|---|---|---|---|---|---|
| 1778028015 | 23.89° C | 44% | 1008.2 hPa | 0 mm | 0.89 m/s, 207° | 0 W/m² | - |
| 1778027729 | 23.89° C | 44% | 1008.2 hPa | 0 mm | 0.89 m/s, 241° | 0 W/m² | - |
| 1778027425 | 23.89° C | 44% | 1008.2 hPa | 0 mm | 0 m/s | 0 W/m² | - |
| 1778027120 | 23.89° C | 44% | 1008.2 hPa | 0 mm | 0 m/s | 0 W/m² | - |
| 1778026828 | 24.44° C | 44% | 1008.2 hPa | 0 mm | 0.45 m/s, 223° | 0 W/m² | - |
| 1778026520 | 24.44° C | 43% | 1008.1 hPa | 0 mm | 0.89 m/s, 250° | 0 W/m² | - |
| 1778026225 | 24.44° C | 42% | 1008 hPa | 0 mm | 0.45 m/s, 201° | 0 W/m² | - |
| 1778025915 | 25° C | 42% | 1008 hPa | 0 mm | 0.45 m/s, 207° | 0 W/m² | - |
| 1778025625 | 25° C | 41% | 1007.9 hPa | 0 mm | 1.79 m/s, 235° | 0 W/m² | - |
| 1778025317 | 25.56° C | 41% | 1007.9 hPa | 0 mm | 0 m/s | 0 W/m² | - |
| 1778025029 | 25.56° C | 42% | 1007.8 hPa | 0 mm | 0.89 m/s, 203° | 0 W/m² | - |
| 1778024719 | 25.56° C | 42% | 1007.8 hPa | 0 mm | 0.45 m/s, 184° | 0 W/m² | - |
| 1778024430 | 25.56° C | 41% | 1007.8 hPa | 0 mm | 1.34 m/s, 227° | 5 W/m² | - |
| 1778024120 | 25.56° C | 42% | 1007.7 hPa | 0 mm | 0.45 m/s, 225° | 11 W/m² | - |
| 1778023822 | 25.56° C | 41% | 1007.7 hPa | 0 mm | 2.68 m/s, 236° | 14 W/m² | - |
| 1778023533 | 25.56° C | 42% | 1007.6 hPa | 0 mm | 0.89 m/s, 195° | 14 W/m² | - |
| 1778023223 | 25.56° C | 41% | 1007.6 hPa | 0 mm | 1.34 m/s, 230° | 12 W/m² | - |
| 1778022930 | 25.56° C | 41% | 1007.5 hPa | 0 mm | 1.34 m/s, 170° | 12 W/m² | - |
| 1778022618 | 25.56° C | 42% | 1007.6 hPa | 0 mm | 0.89 m/s, 219° | 9 W/m² | - |
| 1778022331 | 25.56° C | 42% | 1007.7 hPa | 0 mm | 0.45 m/s, 219° | 7 W/m² | - |
| 1778022026 | 25.56° C | 41% | 1007.5 hPa | 0 mm | 1.79 m/s, 178° | 9 W/m² | - |
| 1778021718 | 25.56° C | 42% | 1007.5 hPa | 0 mm | 0.45 m/s, 225° | 7 W/m² | - |
| 1778021417 | 25.56° C | 41% | 1007.5 hPa | 0 mm | 0.89 m/s, 217° | 5 W/m² | - |
| 1778021131 | 26.11° C | 41% | 1007.4 hPa | 0 mm | 1.34 m/s, 246° | 9 W/m² | - |
| 1778020823 | 26.11° C | 39% | 1007.3 hPa | 0 mm | 0 m/s | 19 W/m² | - |
* Rain latest hour (hover to see other rain measurements)
** Current wind speed in m/s (hover to see current wind gust speed)